[[{"header":{"parameterUnit":"m.s-1","parameterCategory":1,"la1":30.2991,"la2":30.254,"lo1":-89.0895,"lo2":-89.0444,"dy":0.0017,"dx":0.0017,"nx":28,"ny":28,"refTime":"2023-04-30T15:00:00:Z","depth":0,"parameterNumber":2,"parameterNumberName":"U-component_of_WINDS"},"data":[0,0,0,0,0,0,0,0,0,0,0,0,0,0,0,0,0,0,0,0,0,0,0,0,0,0,0,0,0,0,0,0,0,0,0,0,0,0,0,0,0,0,0,0,0,0,0,0,0,0,0,0,0,0,0,0,0,0,-1.6713,-1.6713,0,-1.6719,-1.6719,-1.6719,-1.6634,-1.6632,-1.663,-1.6628,-1.6635,-1.6638,-1.664,0,0,0,0,0,0,0,0,0,0,0,0,0,-1.663,-1.6632,-1.6713,-1.6713,-1.6713,-1.6719,-1.6719,-1.6719,-1.6635,-1.6632,-1.6629,-1.6627,-1.6635,-1.6637,-1.664,0,0,0,0,0,0,0,0,0,0,0,0,0,-1.6654,-1.6633,-1.6713,-1.6672,-1.6668,-1.6719,-1.6719,-1.6719,-1.6635,-1.6632,-1.6628,-1.6625,-1.6634,-1.6637,-1.6641,-1.6731,0,0,-1.6651,-1.6653,0,0,0,0,0,0,0,0,-1.6653,-1.6657,-1.6678,-1.6675,-1.6671,-1.6672,-1.6692,-1.6723,-1.6636,-1.6648,-1.6628,-1.6624,-1.6651,-1.6652,-1.6661,-1.6732,-1.6732,-1.6652,-1.6654,-1.6655,-1.6656,0,0,0,0,0,0,0,-1.6651,-1.6657,-1.6715,-1.6678,-1.6674,-1.6653,-1.6653,-1.6698,-1.6669,-1.6647,-1.6641,-1.6642,-1.6648,-1.6658,-1.6661,-1.6732,-1.6652,-1.6655,-1.6657,-1.6658,-1.6876,-1.6879,0,0,0,0,0,0,-1.6655,-1.6656,-1.6715,-1.6716,-1.6653,-1.6658,-1.6657,-1.6675,-1.6668,-1.6663,-1.6645,-1.6638,-1.6654,-1.6657,-1.6661,-1.6765,-1.6655,-1.6659,-1.6661,-1.6872,-1.6877,-1.6881,0,0,0,0,0,0,-1.6654,-1.6661,-1.6715,-1.6684,-1.6689,-1.6663,-1.6684,-1.6677,-1.6687,-1.6667,-1.6661,-1.6661,-1.6651,-1.6656,-1.6714,-1.6765,-1.666,-1.6663,-1.6868,-1.6874,-1.6879,-1.6977,0,0,0,0,0,0,-1.6652,-1.6661,-1.6695,-1.6685,-1.6691,-1.6768,-1.6687,-1.668,-1.6693,-1.6684,-1.668,-1.6676,-1.6649,-1.6709,-1.6717,-1.6768,-1.6666,-1.6863,-1.6871,-1.6877,-1.6969,-1.6985,-1.6998,0,0,0,0,0,-1.6649,-1.6724,-1.6698,-1.6705,-1.6733,-1.6771,-1.6775,-1.6742,-1.6698,-1.6732,-1.6718,-1.6676,-1.6758,-1.6716,-1.6724,-1.6776,-1.686,-1.6868,-1.6876,-1.6962,-1.6982,-1.6998,0,0,0,0,0,0,-1.6742,-1.6722,-1.6693,-1.6766,-1.6771,-1.6757,-1.6799,-1.6764,-1.6782,-1.6773,-1.6731,-1.6731,-1.6795,-1.6792,-1.6745,-1.6863,-1.6801,-1.6812,-1.6863,-1.6882,-1.6896,-1.6896,-1.6669,0,0,0,0,0,-1.677,-1.6802,-1.6783,-1.685,-1.6854,-1.6826,-1.6842,-1.6815,-1.6819,-1.6821,-1.6812,-1.6817,-1.6844,-1.6863,-1.6886,-1.6968,-1.6965,-1.7008,-1.7022,-1.7035,-1.7044,-1.7086,-1.7104,-1.6908,-1.6908,-1.6908,0,0,-1.6831,-1.6824,-1.6847,-1.6869,-1.6869,-1.6903,-1.6829,-1.6869,-1.6893,-1.6827,-1.6881,-1.6875,-1.6878,-1.6948,-1.6978,-1.6947,-1.7098,-1.7045,-1.7055,-1.7058,-1.7096,-1.7115,-1.7131,-1.6913,-1.6912,-1.6911,0,0,-1.6957,-1.6956,-1.701,-1.7012,-1.7013,-1.6994,-1.7008,-1.6999,-1.6992,-1.7045,-1.6995,-1.7025,-1.7072,-1.7076,-1.7084,-1.7211,-1.7172,-1.722,-1.7297,-1.7339,-1.7354,-1.7367,-1.7412,-1.7428,-1.7229,-1.7229,-1.723,0,-1.7032,-1.7081,-1.7043,-1.7086,-1.7096,-1.7037,-1.7091,-1.7095,-1.7105,-1.7114,-1.7078,-1.7135,-1.7133,-1.7203,-1.7233,-1.7242,-1.7256,-1.722,-1.7355,-1.7368,-1.738,-1.7422,-1.7439,-1.7235,-1.7235,-1.7234,-1.7233,0,-1.7173,-1.7208,-1.7252,-1.7261,-1.7276,-1.7325,-1.7294,-1.7315,-1.7287,-1.7272,-1.7326,-1.7322,-1.7342,-1.7357,-1.7331,-1.7423,-1.7403,-1.7362,-1.7299,-1.7405,-1.7444,-1.7459,-1.7243,-1.7241,-1.724,-1.7238,0,0,-1.7359,-1.7345,-1.7362,-1.7365,-1.7361,-1.7388,-1.7433,-1.7453,-1.7471,-1.7479,-1.7516,-1.7556,-1.7518,-1.7527,-1.7501,-1.7537,-1.7636,-1.7491,-1.749,-1.7518,-1.7736,-1.7767,-1.7786,-1.7611,-1.7613,-1.7616,-1.7735,0,-1.7482,-1.7558,-1.7524,-1.7604,-1.7635,-1.7578,-1.7618,-1.762,-1.7607,-1.7631,-1.7617,-1.7646,-1.7593,-1.7598,-1.7631,-1.7617,-1.768,-1.7608,-1.7644,-1.7646,-1.7645,-1.7806,-1.7839,-1.7952,-1.775,-1.7753,-1.7755,0,-1.7636,-1.7649,-1.7731,-1.772,-1.7732,-1.7768,-1.7783,-1.7807,-1.7808,-1.7796,-1.7806,-1.777,-1.7814,-1.7751,-1.7811,-1.7763,-1.7776,-1.7771,-1.7774,-1.7776,-1.7707,-1.7812,-1.7988,-1.8005,-1.7778,-1.7777,-1.7775,0,-1.7762,-1.7801,-1.7855,-1.7859,-1.7848,-1.7874,-1.7871,-1.7869,-1.7882,-1.7895,-1.7903,-1.7921,-1.7931,-1.7946,-1.7917,-1.7874,-1.798,-1.7915,-1.7971,-1.7972,-1.7996,-1.7995,-1.8175,-1.8005,-1.8005,-1.8004,-1.8004,0,-1.7903,-1.7955,-1.7911,-1.7944,-1.8001,-1.7962,-1.8019,-1.801,-1.8008,-1.8038,-1.7991,-1.802,-1.798,-1.8006,-1.7983,-1.8035,-1.804,-1.8031,-1.8025,-1.8035,-1.8037,-1.8043,-1.8034,-1.8009,-1.8008,-1.8007,-1.8006,0,-1.8054,-1.8027,-1.8081,-1.8066,-1.8063,-1.8106,-1.8092,-1.8123,-1.8105,-1.8144,-1.8151,-1.8124,-1.8152,-1.8124,-1.815,-1.8135,-1.8205,-1.8187,-1.8204,-1.8199,-1.8256,-1.8251,-1.8447,-1.8471,-1.8286,-1.8288,-1.8289,0,-1.8145,-1.8184,-1.8172,-1.8188,-1.8188,-1.8215,-1.8228,-1.819,-1.8206,-1.8209,-1.8238,-1.8262,-1.8278,-1.8325,-1.8308,-1.8328,-1.831,-1.8377,-1.8312,-1.8321,-1.831,-1.8308,-1.8311,-1.839,-1.8392,-1.8394,-1.8396,0,-1.831,-1.8294,-1.8314,-1.8329,-1.8345,-1.8355,-1.8362,-1.8378,-1.8339,-1.8359,-1.8386,-1.8399,-1.8424,-1.8448,-1.8462,-1.8459,-1.8421,-1.8416,-1.843,-1.8441,-1.8449,-1.8445,-1.824,-1.8412,-1.841,-1.8409,-1.8408,-1.8408,-1.8433,-1.8465,-1.8461,-1.8484,-1.8485,-1.8492,-1.8518,-1.8504,-1.8525,-1.8542,-1.8519,-1.8552,-1.8551,-1.8566,-1.8567,-1.8593,-1.8564,-1.8585,-1.8589,-1.8595,-1.8603,-1.8445,-1.8595,-1.8595,-1.8594,-1.8594,-1.8593,0,-1.8595,-1.8589,-1.8611,-1.862,-1.8639,-1.86,-1.8605,-1.8623,-1.8653,-1.8654,-1.8671,-1.8701,-1.8724,-1.8708,-1.8727,-1.875,-1.8733,-1.8756,-1.8754,-1.8754,-1.8628,-1.8614,-1.877,-1.877,-1.877,-1.877,-1.877,-1.877,-1.8681,-1.8731,-1.8715,-1.8765,-1.8758,-1.8789,-1.8795,-1.8801,-1.8802,-1.8838,-1.8856,-1.8845,-1.884,-1.8857,-1.8876,-1.8871,-1.888,-1.8909,-1.8898,-1.878,-1.8763,-1.8746,-1.8733,-1.8911,-1.8912,-1.9021,-1.9022,-1.9023]},{"header":{"parameterUnit":"m.s-1","parameterCategory":1,"la1":30.2991,"la2":30.254,"lo1":-89.0895,"lo2":-89.0444,"dy":0.0017,"dx":0.0017,"nx":28,"ny":28,"refTime":"2023-04-30T15:00:00:Z","depth":0,"parameterNumber":3,"parameterNumberName":"V-component_of_WINDS"},"data":[0,0,0,0,0,0,0,0,0,0,0,0,0,0,0,0,0,0,0,0,0,0,0,0,0,0,0,0,0,0,0,0,0,0,0,0,0,0,0,0,0,0,0,0,0,0,0,0,0,0,0,0,0,0,0,0,0,0,-2.5172,-2.5172,0,-2.5217,-2.5217,-2.5218,-2.5192,-2.5191,-2.519,-2.5188,-2.5231,-2.5233,-2.5236,0,0,0,0,0,0,0,0,0,0,0,0,0,-2.5059,-2.5062,-2.5171,-2.5172,-2.5173,-2.5216,-2.5217,-2.5218,-2.5192,-2.5191,-2.5189,-2.5188,-2.523,-2.5233,-2.5236,0,0,0,0,0,0,0,0,0,0,0,0,0,-2.5106,-2.5062,-2.5171,-2.5165,-2.5165,-2.5216,-2.5217,-2.5218,-2.5193,-2.5191,-2.5189,-2.5187,-2.5229,-2.5233,-2.5236,-2.5295,0,0,-2.5247,-2.5248,0,0,0,0,0,0,0,0,-2.5104,-2.5111,-2.5166,-2.5166,-2.5166,-2.5197,-2.5193,-2.5243,-2.5193,-2.5182,-2.5188,-2.5186,-2.5221,-2.5225,-2.5237,-2.5297,-2.5298,-2.5247,-2.5249,-2.525,-2.5251,0,0,0,0,0,0,0,-2.5101,-2.5108,-2.5189,-2.5166,-2.5167,-2.5159,-2.5164,-2.5202,-2.5211,-2.5183,-2.5181,-2.5187,-2.5221,-2.5234,-2.5238,-2.5299,-2.5247,-2.525,-2.5252,-2.5253,-2.5406,-2.5408,0,0,0,0,0,0,-2.5098,-2.5106,-2.5188,-2.5191,-2.513,-2.5163,-2.5168,-2.5189,-2.5211,-2.5213,-2.5189,-2.5186,-2.5229,-2.5234,-2.524,-2.5308,-2.525,-2.5254,-2.5256,-2.5404,-2.5407,-2.5409,0,0,0,0,0,0,-2.5096,-2.5106,-2.5186,-2.5148,-2.5157,-2.5166,-2.519,-2.5191,-2.5204,-2.5215,-2.5216,-2.5201,-2.5228,-2.5235,-2.5281,-2.5309,-2.5255,-2.5258,-2.5402,-2.5405,-2.5408,-2.5446,0,0,0,0,0,0,-2.5093,-2.5105,-2.5129,-2.5149,-2.516,-2.5228,-2.5192,-2.5193,-2.5211,-2.5207,-2.5227,-2.5229,-2.5227,-2.5276,-2.5284,-2.5313,-2.5261,-2.5399,-2.5403,-2.5407,-2.5442,-2.545,-2.5457,0,0,0,0,0,-2.5089,-2.5137,-2.513,-2.514,-2.5189,-2.523,-2.5236,-2.5234,-2.5213,-2.5236,-2.5242,-2.5228,-2.5305,-2.5281,-2.529,-2.532,-2.5397,-2.5402,-2.5406,-2.5439,-2.5448,-2.5456,0,0,0,0,0,0,-2.5119,-2.514,-2.5132,-2.5188,-2.5208,-2.5225,-2.5254,-2.5244,-2.5269,-2.5264,-2.526,-2.5265,-2.5312,-2.5321,-2.5294,-2.5377,-2.5348,-2.5354,-2.5369,-2.5378,-2.5385,-2.5382,-2.5264,0,0,0,0,0,-2.5133,-2.5165,-2.5181,-2.5229,-2.5239,-2.5245,-2.5262,-2.5259,-2.5278,-2.5286,-2.5296,-2.5315,-2.5343,-2.5361,-2.5388,-2.5444,-2.5447,-2.5469,-2.5476,-2.5482,-2.5487,-2.5515,-2.5525,-2.5424,-2.5424,-2.5423,0,0,-2.516,-2.5175,-2.5196,-2.5235,-2.525,-2.5282,-2.5252,-2.5287,-2.531,-2.5291,-2.5335,-2.5343,-2.5363,-2.5414,-2.5437,-2.5423,-2.5516,-2.5488,-2.5492,-2.5494,-2.5521,-2.553,-2.5539,-2.5427,-2.5426,-2.5426,0,0,-2.5226,-2.5242,-2.5283,-2.5298,-2.5321,-2.5325,-2.5335,-2.5354,-2.5359,-2.5403,-2.5389,-2.5416,-2.5465,-2.5479,-2.5493,-2.5564,-2.555,-2.5573,-2.5609,-2.5637,-2.5645,-2.5652,-2.5675,-2.5684,-2.5578,-2.5578,-2.5578,0,-2.5257,-2.5306,-2.5305,-2.5342,-2.5358,-2.5344,-2.5384,-2.5399,-2.5428,-2.5439,-2.5424,-2.5484,-2.5496,-2.5549,-2.5567,-2.5579,-2.5588,-2.557,-2.5644,-2.5651,-2.5658,-2.568,-2.5689,-2.558,-2.558,-2.558,-2.558,0,-2.5342,-2.5377,-2.5407,-2.5437,-2.5457,-2.5495,-2.5498,-2.5519,-2.5514,-2.5519,-2.5563,-2.5578,-2.5606,-2.5619,-2.5614,-2.5671,-2.5661,-2.5645,-2.5615,-2.567,-2.569,-2.5699,-2.5584,-2.5583,-2.5582,-2.5582,0,0,-2.5428,-2.5457,-2.5468,-2.5481,-2.5505,-2.553,-2.5567,-2.5596,-2.5613,-2.5634,-2.5663,-2.5705,-2.5689,-2.5705,-2.5702,-2.5726,-2.5779,-2.5707,-2.5707,-2.5718,-2.5841,-2.5851,-2.5861,-2.5771,-2.5773,-2.5774,-2.5838,0,-2.5495,-2.5561,-2.556,-2.562,-2.565,-2.5637,-2.5668,-2.5685,-2.5691,-2.5716,-2.5721,-2.575,-2.5729,-2.5738,-2.5762,-2.5768,-2.5804,-2.5764,-2.5797,-2.5798,-2.5791,-2.5873,-2.5884,-2.5944,-2.5847,-2.5848,-2.5849,0,-2.5581,-2.5606,-2.5669,-2.5687,-2.57,-2.5728,-2.5754,-2.5779,-2.5798,-2.58,-2.5817,-2.581,-2.5845,-2.5816,-2.5864,-2.5837,-2.585,-2.5855,-2.5857,-2.5859,-2.5826,-2.5875,-2.5963,-2.5971,-2.5862,-2.5861,-2.586,0,-2.5635,-2.5684,-2.5728,-2.5739,-2.5762,-2.5782,-2.5792,-2.5809,-2.5826,-2.5848,-2.5859,-2.5885,-2.5898,-2.5918,-2.5917,-2.5896,-2.5965,-2.5936,-2.5966,-2.5966,-2.598,-2.5978,-2.607,-2.5991,-2.5991,-2.5991,-2.5991,0,-2.5708,-2.5747,-2.5752,-2.5779,-2.5821,-2.582,-2.5861,-2.5869,-2.5884,-2.5911,-2.5901,-2.5926,-2.5924,-2.5949,-2.5949,-2.5987,-2.5994,-2.5995,-2.5994,-2.5995,-2.5995,-2.6003,-2.5998,-2.5993,-2.5993,-2.5992,-2.5992,0,-2.5775,-2.5781,-2.5827,-2.5845,-2.585,-2.588,-2.5895,-2.5919,-2.5924,-2.5958,-2.5966,-2.5972,-2.6001,-2.6002,-2.6035,-2.6035,-2.6081,-2.6077,-2.6075,-2.6074,-2.6103,-2.61,-2.6201,-2.6214,-2.6129,-2.613,-2.6131,0,-2.5821,-2.5851,-2.5872,-2.5889,-2.5901,-2.593,-2.5947,-2.5947,-2.5965,-2.5988,-2.6009,-2.6037,-2.6059,-2.6105,-2.6112,-2.6137,-2.6131,-2.6165,-2.6135,-2.6134,-2.6129,-2.6127,-2.6129,-2.617,-2.6171,-2.6172,-2.6173,0,-2.5901,-2.5902,-2.5928,-2.5955,-2.5976,-2.5997,-2.6016,-2.6031,-2.6032,-2.6053,-2.6083,-2.61,-2.6134,-2.6161,-2.6185,-2.6193,-2.6183,-2.6183,-2.619,-2.6191,-2.6188,-2.6188,-2.609,-2.618,-2.6179,-2.6179,-2.6178,-2.6178,-2.5957,-2.5982,-2.6001,-2.603,-2.6044,-2.6062,-2.6086,-2.6094,-2.6119,-2.6147,-2.6145,-2.6177,-2.6193,-2.6225,-2.6235,-2.626,-2.6248,-2.626,-2.6262,-2.6265,-2.6267,-2.6186,-2.6264,-2.6264,-2.6264,-2.6264,-2.6263,0,-2.6035,-2.6046,-2.6073,-2.61,-2.6123,-2.6113,-2.6133,-2.6152,-2.6181,-2.6198,-2.622,-2.6253,-2.6279,-2.6288,-2.6313,-2.633,-2.6326,-2.6337,-2.6334,-2.6336,-2.6277,-2.6267,-2.634,-2.634,-2.634,-2.634,-2.634,-2.634,-2.6077,-2.6119,-2.6122,-2.6169,-2.618,-2.6213,-2.6225,-2.6241,-2.6254,-2.6292,-2.6314,-2.632,-2.6333,-2.6359,-2.6382,-2.6384,-2.6392,-2.6405,-2.6404,-2.6348,-2.6341,-2.6333,-2.6324,-2.6407,-2.6407,-2.6461,-2.6462,-2.6462]}]]